Вернуться в каталог

STARLINK-30329

АктивенСвязьVLEO
NORAD 57635·PAYLOAD·🇺🇸 United States

Запущен Aug 17, 2023 с Cape Canaveral Space Force Station

Loading…

Ближайшие Пролёты (ближайшие 24 часа)

TLE

СвежийSource: CelesTrak SupGP

Эпоха: Sep 14, 2026, 22:24 UTC

1 57635C 23122D   26257.93381944 -.00009565  00000+0 -34654-3 0  2577
2 57635  43.0004 104.0478 0001395 274.6678 168.2373 15.27573631    12

Отслеживайте STARLINK-30329 в реальном времени с AllMySat

Download on the App Store